Weather Roundup
Issued by NWS Springfield, MO

Home | Current Version | Previous Version | Text Only | Print | Product List | Glossary On
Versions: 1 2 3 4 5 6 7 8 9 10 11 12 13 14 15 16 17 18 19 20 21 22 23 24 25 26 27 28 29 30 31 32 33 34 35 36 37 38 39 40 41 42 43 44 45 46 47 48 49 50
000
NZUS99 KSGF 290910
HRRSGF

HOURLY WEATHER
NATIONAL WEATHER SERVICE SPRINGFIELD MO
400 AM CDT SAT AUG 29 2015

......SGF CWA......

CITY           SKY/WX    TMP DP  RH WIND       PRES   REMARKS
SPRINGFIELD    CLOUDY    71  59  65 S12       29.99S
JOPLIN         CLOUDY    72  63  73 S8        29.98S
WEST PLAINS    MOCLDY    71  60  68 S7        30.05F
ROLLA          CLOUDY    69  61  75 S9        29.99F
OSAGE BEACH    CLOUDY    70  59  68 SE5       29.98S
BRANSON        CLOUDY    66  63  88 CALM      30.03S

......SURROUNDING SGF CWA......

CITY           SKY/WX    TMP DP  RH WIND       PRES   REMARKS
CHANUTE        PTCLDY    69  67  93 S7        29.96S
PARSONS        MOCLDY    70  68  93 S3        29.97S
COFFEYVILLE    PTCLDY    70  68  93 SE7       29.96S
EMPORIA        CLEAR     66  64  93 NW6       29.97S
GROVE OK       MOCLDY    72  63  73 CALM      29.98S
ROGERS AR      CLOUDY    69  62  78 SE8       30.01S
SILOAM SPRINGS MOCLDY    72  57  60 SE3       29.99R
NEAR YELLVILLE CLOUDY    66  61  82 CALM      30.01S

......KANSAS AND MISSOURI......

CITY           SKY/WX    TMP DP  RH WIND       PRES   REMARKS
KANSAS CTY INT CLOUDY    70  68  93 W5        29.93S
DOWNTOWN KC    CLOUDY    73  69  87 SW5       29.92R
COLUMBIA       CLOUDY    68  63  84 S8        29.97F
SEDALIA        CLEAR     70  62  76 S12       29.96S
ST JOSEPH      MOCLDY    67  65  93 NW5       29.94R
ST LOUIS       CLOUDY    73  62  68 SE6       30.02
SPIRIT OF STL  CLOUDY    67  65  93 CALM      30.00F
KIRKSVILLE     CLOUDY    68  63  84 SE5       29.96R
WICHITA        CLEAR     71  65  81 N8        29.98S
TOPEKA         PTCLDY    66  63  90 NW3       29.96R
OLATHE         CLOUDY    69  68  96 SW3       29.94R

......TENNESSEE......

CITY           SKY/WX    TMP DP  RH WIND       PRES   REMARKS
MEMPHIS        PTCLDY    75  65  70 S9        30.03R
NASHVILLE      PTCLDY    71  65  81 CALM      30.10S

......ARKANSAS.......

CITY           SKY/WX    TMP DP  RH WIND       PRES   REMARKS
FAYETTEVILLE   CLOUDY    70  62  76 CALM      30.01S
FT SMITH       CLOUDY    73  64  73 NE7       29.99R
LITTLE ROCK    MOCLDY    73  62  68 CALM      30.01S

......OKLAHOMA.......

CITY           SKY/WX    TMP DP  RH WIND       PRES   REMARKS
TULSA          CLOUDY    75  64  68 S9        29.94R
PONCA CITY     CLEAR     69  66  90 CALM      29.95S FOG
MCALESTER      CLOUDY    77  60  55 CALM      29.98S
OKLAHOMA CITY  PTCLDY    69  66  90 SE8       29.98R

......IOWA............

CITY           SKY/WX    TMP DP  RH WIND       PRES   REMARKS
DES MOINES     DRIZZLE   65  63  93 N9        29.94R FOG
QUAD CITIES    CLOUDY    68  62  81 S6        29.95S

......ILLINOIS........

CITY           SKY/WX    TMP DP  RH WIND       PRES   REMARKS
QUINCY         CLOUDY    69  62  78 S9        29.97F
CHICAGO        LGT RAIN  65  61  87 S8        30.03F




USA.gov is the U.S. government's official web portal to all federal, state and local government web resources and services.